Weather reports worldwide

Advertisment
Albacete/Los Llanos, Spain (8280): temperature & dewpoint: 07.12.2018 10:00:00 - 13.12.2018 10:00:00 (CET)Albacete/Los Llanos, Spain (8280): wind speed: 07.12.2018 10:00:00 - 13.12.2018 10:00:00 (CET)Albacete/Los Llanos, Spain (8280): wind direction: 07.12.2018 10:00:00 - 13.12.2018 10:00:00 (CET)Albacete/Los Llanos, Spain (8280): reduced air pressure: 07.12.2018 10:00:00 - 13.12.2018 10:00:00 (CET)Albacete/Los Llanos, Spain (8280): visibility: 07.12.2018 10:00:00 - 13.12.2018 10:00:00 (CET)
Date & Time tt [°C] td [°C] ff [km/h] ff [kn] dd ppp [hPa] vv [km]
13.12.2018 10:00:00 8,4 7,2 8 4 S 1009,9 12
13.12.2018 09:00:00 - - - - - - -
13.12.2018 08:00:00 - - - - - - -
13.12.2018 07:00:00 7,9 7,1 13 7 W 1013,8 9
13.12.2018 06:00:00 - - - - - - -
13.12.2018 05:00:00 - - - - - - -
13.12.2018 04:00:00 9,0 6,3 22 12 WNW 1016,1 15
13.12.2018 03:00:00 - - - - - - -
13.12.2018 02:00:00 - - - - - - -
13.12.2018 01:00:00 8,3 5,8 8 4 W 1018,4 15
13.12.2018 00:00:00 - - - - - - -
12.12.2018 23:00:00 - - - - - - -
12.12.2018 22:00:00 8,5 5,8 9 5 W 1019,9 15
12.12.2018 21:00:00 - - - - - - -
12.12.2018 20:00:00 - - - - - - -
12.12.2018 19:00:00 7,9 5,9 9 5 NW 1021,0 12
12.12.2018 18:00:00 - - - - - - -
12.12.2018 17:00:00 - - - - - - -
12.12.2018 16:00:00 10,8 6,7 18 10 NNW 1020,0 6
12.12.2018 15:00:00 - - - - - - -
12.12.2018 14:00:00 - - - - - - -
12.12.2018 13:00:00 9,2 7,0 18 10 NNW 1022,7 5
12.12.2018 12:00:00 - - - - - - -
12.12.2018 11:00:00 - - - - - - -
12.12.2018 10:00:00 5,7 5,7 0 0 N 1024,9 1,7
12.12.2018 09:00:00 - - - - - - -
12.12.2018 08:00:00 - - - - - - -
12.12.2018 07:00:00 4,0 4,0 9 5 NNW 1025,2 0,6
12.12.2018 06:00:00 - - - - - - -
12.12.2018 05:00:00 - - - - - - -
12.12.2018 04:00:00 4,1 3,8 4 2 N 1024,8 7
12.12.2018 03:00:00 - - - - - - -
12.12.2018 02:00:00 - - - - - - -
12.12.2018 01:00:00 4,0 3,4 8 4 W 1025,2 12
12.12.2018 00:00:00 - - - - - - -
11.12.2018 23:00:00 - - - - - - -
11.12.2018 22:00:00 7,4 3,8 9 5 NNW 1024,5 30
11.12.2018 21:00:00 - - - - - - -
11.12.2018 20:00:00 - - - - - - -
11.12.2018 19:00:00 11,5 4,3 16 9 W 1022,3 30
11.12.2018 18:00:00 - - - - - - -
11.12.2018 17:00:00 - - - - - - -
11.12.2018 16:00:00 15,6 3,7 8 4 NW 1020,2 30
11.12.2018 15:00:00 - - - - - - -
11.12.2018 14:00:00 - - - - - - -
11.12.2018 13:00:00 10,6 1,7 4 2 N 1023,6 30
11.12.2018 12:00:00 - - - - - - -
11.12.2018 11:00:00 - - - - - - -
11.12.2018 10:00:00 3,5 0,6 0 0 N 1026,5 20
11.12.2018 09:00:00 - - - - - - -
11.12.2018 08:00:00 - - - - - - -
11.12.2018 07:00:00 -0,2 -0,6 5 3 S 1027,3 10
11.12.2018 06:00:00 - - - - - - -
11.12.2018 05:00:00 - - - - - - -
11.12.2018 04:00:00 1,6 0,4 4 2 NE 1027,9 20
11.12.2018 03:00:00 - - - - - - -
11.12.2018 02:00:00 - - - - - - -
11.12.2018 01:00:00 3,7 1,1 5 3 S 1028,3 30
11.12.2018 00:00:00 - - - - - - -
10.12.2018 23:00:00 - - - - - - -
10.12.2018 22:00:00 4,0 0,5 4 2 N 1029,3 30
10.12.2018 21:00:00 - - - - - - -
10.12.2018 20:00:00 - - - - - - -
10.12.2018 19:00:00 7,2 1,7 8 4 SSE 1027,9 20
10.12.2018 18:00:00 - - - - - - -
10.12.2018 17:00:00 - - - - - - -
10.12.2018 16:00:00 15,8 -0,4 4 2 N 1025,6 25
10.12.2018 15:00:00 - - - - - - -
10.12.2018 14:00:00 - - - - - - -
10.12.2018 13:00:00 12,3 2,2 5 3 N 1029,0 20
10.12.2018 12:00:00 - - - - - - -
10.12.2018 11:00:00 - - - - - - -
10.12.2018 10:00:00 5,0 1,3 0 0 N 1032,8 25
10.12.2018 09:00:00 - - - - - - -
10.12.2018 08:00:00 - - - - - - -
10.12.2018 07:00:00 0,1 -0,3 4 2 N 1033,7 10
10.12.2018 06:00:00 - - - - - - -
10.12.2018 05:00:00 - - - - - - -
10.12.2018 04:00:00 0,9 0,5 5 3 S 1034,0 20
10.12.2018 03:00:00 - - - - - - -
10.12.2018 02:00:00 - - - - - - -
10.12.2018 01:00:00 2,6 1,7 2 1 N 1034,1 20
10.12.2018 00:00:00 - - - - - - -
09.12.2018 23:00:00 - - - - - - -
09.12.2018 22:00:00 6,7 3,9 9 5 SSE 1032,7 20
09.12.2018 21:00:00 - - - - - - -
09.12.2018 20:00:00 - - - - - - -
09.12.2018 19:00:00 9,3 4,7 5 3 SW 1030,5 25
09.12.2018 18:00:00 - - - - - - -
09.12.2018 17:00:00 - - - - - - -
09.12.2018 16:00:00 17,0 5,0 15 8 NW 1027,2 20
09.12.2018 15:00:00 - - - - - - -
09.12.2018 14:00:00 - - - - - - -
09.12.2018 13:00:00 14,6 5,7 11 6 NW 1029,4 20
09.12.2018 12:00:00 - - - - - - -
09.12.2018 11:00:00 - - - - - - -
09.12.2018 10:00:00 7,2 3,4 0 0 N 1032,7 25
09.12.2018 09:00:00 - - - - - - -
09.12.2018 08:00:00 - - - - - - -
09.12.2018 07:00:00 1,1 0,7 5 3 S 1033,8 25
09.12.2018 06:00:00 - - - - - - -
09.12.2018 05:00:00 - - - - - - -
09.12.2018 04:00:00 1,8 0,8 5 3 S 1033,7 25
09.12.2018 03:00:00 - - - - - - -
09.12.2018 02:00:00 - - - - - - -
09.12.2018 01:00:00 2,6 1,4 8 4 WSW 1033,3 25
09.12.2018 00:00:00 - - - - - - -
08.12.2018 23:00:00 - - - - - - -
08.12.2018 22:00:00 4,7 2,2 9 5 SW 1032,4 30
08.12.2018 21:00:00 - - - - - - -
08.12.2018 20:00:00 - - - - - - -
08.12.2018 19:00:00 9,3 4,7 15 8 WNW 1029,6 30
08.12.2018 18:00:00 - - - - - - -
08.12.2018 17:00:00 - - - - - - -
08.12.2018 16:00:00 14,1 6,2 16 9 WNW 1027,7 30
08.12.2018 15:00:00 - - - - - - -
08.12.2018 14:00:00 - - - - - - -
08.12.2018 13:00:00 12,4 7,3 15 8 NW 1029,2 30
08.12.2018 12:00:00 - - - - - - -
08.12.2018 11:00:00 - - - - - - -
08.12.2018 10:00:00 5,2 4,8 11 6 WNW 1031,3 8
08.12.2018 09:00:00 - - - - - - -
08.12.2018 08:00:00 - - - - - - -
08.12.2018 07:00:00 3,8 3,7 8 4 NW 1030,6 6
08.12.2018 06:00:00 - - - - - - -
08.12.2018 05:00:00 - - - - - - -
08.12.2018 04:00:00 6,3 5,7 5 3 WNW 1029,6 8
08.12.2018 03:00:00 - - - - - - -
08.12.2018 02:00:00 - - - - - - -
08.12.2018 01:00:00 7,4 5,9 8 4 NW 1029,4 7
08.12.2018 00:00:00 - - - - - - -
07.12.2018 23:00:00 - - - - - - -
07.12.2018 22:00:00 6,5 6,2 8 4 N 1029,4 7
07.12.2018 21:00:00 - - - - - - -
07.12.2018 20:00:00 - - - - - - -
07.12.2018 19:00:00 10,1 4,3 8 4 N 1027,6 15
07.12.2018 18:00:00 - - - - - - -
07.12.2018 17:00:00 - - - - - - -
07.12.2018 16:00:00 16,2 5,5 18 10 NW 1025,1 30
07.12.2018 15:00:00 - - - - - - -
07.12.2018 14:00:00 - - - - - - -
07.12.2018 13:00:00 13,3 7,1 11 6 NW 1027,4 20
07.12.2018 12:00:00 - - - - - - -
07.12.2018 11:00:00 - - - - - - -
07.12.2018 10:00:00 5,2 4,9 0 0 N 1030,7 8

tt = temperature
td = dewpoint
ff = wind speed
dd = wind direction
ppp = reduced air pressure
vv = visibility

Next stations